Regional Weather Roundup
Issued by NWS

Home | Current Version | Previous Version | Graphics & Text | Print | Product List | Glossary On
Versions: 1 2 3 4 5 6 7 8 9 10 11 12 13 14 15 16 17 18 19 20 21 22 23 24 25 26 27
000
ASUS45 KTFX 211310
RWRMT
MONTANA REGIONAL WEATHER ROUNDUP
NATIONAL WEATHER SERVICE GREAT FALLS MT
700 AM MDT MON AUG 21 2017

NOTE: "FAIR" INDICATES FEW OR NO CLOUDS BELOW 12000 FEET WITH NO
SIGNIFICANT WEATHER AND/OR OBSTRUCTIONS TO VISIBILITY.

MTZ001>007-043-211400-
WEST OF THE DIVIDE

CITY           SKY/WX    TMP DP  RH WIND       PRES   REMARKS
KALISPELL      CLEAR     40  39  97 N3        30.17R
MISSOULA       CLEAR     48  38  68 CALM      30.19R
BUTTE          CLEAR     42  30  62 SE3       30.26R
MULLAN PASS    CLEAR     53  33  46 NW3       30.27R
ANACONDA         N/A     46  32  57 SW6       30.24R
DEER LODGE       N/A     43  34  70 W5        30.25R
EUREKA           N/A     45  37  76 MISG      30.19R
HAMILTON         N/A     46  37  71 CALM      30.20R
LIBBY            N/A     43  39  87 CALM      30.17R
PLAINS           N/A     44  35  70 CALM      30.16R
RONAN            N/A     45  40  82 CALM      30.19R
$$

MTZ008-052>055-211400-
SOUTHWEST MONTANA

CITY           SKY/WX    TMP DP  RH WIND       PRES   REMARKS
BOZEMAN        CLEAR     45  35  68 SE6       30.20R
DILLON         CLOUDY    45  29  53 SW8       30.22R
W YELLOWSTONE  CLOUDY    36  34  93 CALM      30.28R
ENNIS          CLEAR     43  30  61 NE6       30.27R
THREE FORKS      N/A     39  31  73 CALM      30.17R
TWIN BRIDGES     N/A     47  24  40 CALM      30.18R
$$

MTZ009-010-012-014-046-048-049-054-211400-
EAST SLOPES AND CENTRAL MONTANA

CITY           SKY/WX    TMP DP  RH WIND       PRES   REMARKS
CUT BANK       CLEAR     48  36  63 NW10      30.19R
GREAT FALLS    CLEAR     52  30  43 SW10      30.16R
MALMSTROM AFB  CLEAR     55  32  41 SW12      30.15R
HELENA         CLEAR     52  36  54 N3        30.18R
AUGUSTA          N/A     49  34  57 N9        30.19R
BOWMANS CRNR     N/A     51  34  52 W6        30.17R
CHOTEAU          N/A     52  36  54 W6        30.19R
CONRAD           N/A     53  41  64 W8        30.17R
FAIRFIELD        N/A     47  37  69 NW5       30.17R
POWER            N/A     48  34  58 NW10      30.15R
RAYNESFORD       N/A     48  32  54 E5        30.17R
ULM              N/A     49  30  49 CALM      30.17R
$$

MTZ011-013-016-021-045-047-050-051-211400-
NORTH CENTRAL MONTANA

CITY           SKY/WX    TMP DP  RH WIND       PRES   REMARKS
HAVRE          CLEAR     53  36  52 NE9       30.13R
LEWISTOWN      CLEAR     46  32  58 SE9       30.17R
N BAR RANCH      N/A     50  28  43 W8        30.19S
CHINOOK          N/A     54  37  54 S3        30.14R
DENTON           N/A     50  32  50 S10       30.11R
GEYSER           N/A     53  33  45 SW13      30.16R
GRASS RANGE      N/A     54  30  39 SW13      30.11
JUDITH GAP       N/A     51  30  43 NE5       30.18R
WINIFRED         N/A     55  30  37 SW6       30.13R
$$

MTZ017>020-022>027-061-062-211400-
NORTHEAST MONTANA

CITY           SKY/WX    TMP DP  RH WIND       PRES   REMARKS
GLASGOW        CLEAR     54  34  46 NW8       30.08R
JORDAN           N/A     51  30  44 W5        30.09R
SIDNEY         PTCLDY    62  39  42 NW15      30.01R
WOLF POINT     CLEAR     61  36  39 N18       30.05R
MALTA          CLEAR     57  36  44 N13       30.11R
PLENTYWOOD       N/A     55  41  58 NW14G21   30.03R
POPLAR           N/A     57  37  47 N13       30.04R
SCOBEY           N/A     49  36  61 W6        30.06R
$$

MTZ028>42-056>058-211400-
SOUTHCENTRAL AND SOUTHEAST MONTANA

CITY           SKY/WX    TMP DP  RH WIND       PRES   REMARKS
BAKER          CLEAR     56  44  64 W8        30.06R
BILLINGS       CLOUDY    59  32  36 NW6       30.15R
LIVINGSTON     CLEAR     46  31  55 CALM      30.20R
MILES CITY     PTCLDY    56  37  49 W8        30.07R
BIG TIMBER     CLEAR     48  30  49 W8        30.22R
EKALAKA          N/A     55  46  71 CALM      30.06R
HARLOWTON        N/A     46  29  51 MISG      30.18R
LAUREL           N/A     55  30  38 CALM      30.13F
$$

REGIONAL REPORTS...DAKOTAS

CITY           SKY/WX    TMP DP  RH WIND       PRES   REMARKS
WILLISTON      PTCLDY    59  44  57 N9        29.99R
MINOT          MOSUNNY   59  50  72 SE5       29.95S
DICKINSON      CLEAR     52  49  89 SW3       29.99R
BEACH            N/A     54  48  82 CALM      30.06R
CROSBY           N/A     55  41  58 NW17      29.98R
TIOGA            N/A     55  52  88 SW9       29.98R
WATFORD CITY     N/A     52  48  87 SW7       29.98R
BISMARCK       CLOUDY    58  55  90 CALM      29.97S
GRAND FORKS    CLOUDY    59  54  83 S8        29.99F
FARGO          LGT RAIN  61  56  83 SE6       30.01S
BUFFALO SD       N/A     56  51  84 NW12      29.97S
RAPID CITY     CLEAR     58  52  80 N6        30.01R
$$

REGIONAL REPORTS...WYOMING/IDAHO/WASHINGTON

CITY           SKY/WX    TMP DP  RH WIND       PRES   REMARKS
GILLETTE       CLEAR     56  39  53 CALM      30.12R
SHERIDAN       CLEAR     53  40  61 S3        30.14R
BUFFALO WY     CLEAR     57  35  43 N6        30.18R
CODY           CLOUDY    56  36  47 CALM      30.21R
YELLOWSTONE LA   N/A     36  35  96 CALM      30.35S
IDAHO FALLS    PTCLDY    50  39  66 SW7       30.16R
SALMON         CLEAR     45  35  68 CALM      30.19R
BOISE          CLEAR     57  40  52 S5        30.07R
SPOKANE        MOCLDY    58  41  53 CALM      30.13S
$$

REGIONAL REPORTS...ALBERTA

CITY           SKY/WX    TMP DP  RH WIND       PRES   REMARKS
EDMONTON       CLEAR     46  45  93 SW5       30.11R
CALGARY        PTCLDY    43  39  87 CALM      30.18R
LETHBRIDGE     PTCLDY    45  37  76 W6        30.19R
MEDICINE HAT   MOCLDY    55  43  62 N5        30.14S
$$

REGIONAL REPORTS...SASKATCHEWAN

CITY           SKY/WX    TMP DP  RH WIND       PRES   REMARKS
SWIFT CURRENT  MOCLDY    48  41  76 W8        30.11R
REGINA         PTCLDY    52  43  71 NW9       30.04R
SASKATOON      CLEAR     45  43  93 W6        30.07R
$$




USA.gov is the U.S. government's official web portal to all federal, state and local government web resources and services.